Overview Statistics Trail Chart Weather Telemetry Raw packets
 

This is the latest recevied weather packets stored in our database for station/object KO4DYK. If no packets are shown the sender has not sent any weather packets the latest 10 day(s).

<< 28 29 30 31 32 33 34 >>
Time Temp. Humidity Pressure Rain* Wind** Luminosity Snow
1788466492 38.89° C 44% 1015.6 hPa 0 mm - 536 W/m² -
1788466191 38.33° C 45% 1015.7 hPa 0 mm - 557 W/m² -
1788465886 37.78° C 47% 1015.8 hPa 0 mm - 556 W/m² -
1788465581 37.22° C 47% 1015.7 hPa 0 mm - 203 W/m² -
1788465277 39.44° C 43% 1015.8 hPa 0 mm - 364 W/m² -
1788464972 40° C 44% 1015.9 hPa 0 mm - 612 W/m² -
1788464667 40° C 45% 1016 hPa 0 mm - 637 W/m² -
1788464362 40° C 46% 1016.2 hPa 0 mm - 632 W/m² -
1788464059 39.44° C 49% 1016 hPa 0 mm - 707 W/m² -
1788463754 38.89° C 48% 1016.2 hPa 0 mm - 229 W/m² -
1788463450 38.33° C 48% 1016.3 hPa 0 mm - 675 W/m² -
1788463146 38.89° C 49% 1016.4 hPa 0 mm - 613 W/m² -
1788462842 39.44° C 44% 1016.6 hPa 0 mm - 652 W/m² -
1788462541 38.33° C 49% 1016.6 hPa 0 mm - 592 W/m² -
1788462236 38.89° C 47% 1016.5 hPa 0 mm - 155 W/m² -
1788461935 39.44° C 47% 1016.6 hPa 0 mm - 119 W/m² -
1788461630 40° C 45% 1016.6 hPa 0 mm - 148 W/m² -
1788461326 40° C 46% 1016.7 hPa 0 mm - 496 W/m² -
1788461023 38.89° C 46% 1016.9 hPa 0 mm - 658 W/m² -
1788460722 38.33° C 51% 1017 hPa 0 mm - 690 W/m² -
1788460417 37.22° C 54% 1016.9 hPa 0 mm - 161 W/m² -
1788460117 37.22° C 53% 1017 hPa 0 mm - 160 W/m² -
1788459816 37.78° C 52% 1017 hPa 0 mm - 178 W/m² -
1788459511 38.33° C 48% 1017.2 hPa 0 mm - 134 W/m² -
1788459206 38.89° C 48% 1017.4 hPa 0 mm - 156 W/m² -

* Rain latest hour (hover to see other rain measurements)
** Current wind speed in m/s (hover to see current wind gust speed)